Weather History for KUNV - November, 2012

Change the Weather History Date:

Saturday, November 24, 2012

  Actual Average Record
Temperature  
Mean Temperature 32 °F -  
Max Temperature 35 °F 46 °F 67 °F (1979)
Min Temperature 30 °F 28 °F 14 °F (1970)
Degree Days  
Heating Degree Days 32    
Moisture  
Dew Point 20 °F    
Average Humidity 63    
Maximum Humidity 72    
Minimum Humidity 52    
Precipitation  
Precipitation 0.00 in - - ()
Sea Level Pressure  
Sea Level Pressure 29.88 in    
Wind  
Wind Speed 15 mph (West)    
Max Wind Speed 22 mph    
Max Gust Speed 36 mph    
Visibility 10 miles    
Events Snow    
Averages and records for this station are not official NWS values.
T = Trace of Precipitation, MM = Missing Value Source: NWS Daily Summary

Daily Weather History Graph

Daily Weather History Graph

Search for Another Location

Airport or City:

Trip Planner

Search our weather history database for the weather conditions in past years. The results will help you decide how hot, cold, wet, or windy it might be!

Date:

Astronomy

Nov. 24, 2012 Rise Set
Actual Time 7:09 AM EST 4:46 PM EST
Civil Twilight 6:39 AM EST 5:16 PM EST
Nautical Twilight 6:05 AM EST 5:50 PM EST
Astronomical Twilight 5:32 AM EST 6:23 PM EST
Moon 2:31 PM EST (11/24) 3:23 AM EST (11/24)
Length of Visible Light 10h 37m
Length of Day
9h 37m
Waxing Gibbous, 87% of the Moon is Illuminated
Nov 24
Waxing Gibbous
Nov 28
Full
Dec 6
Last Quarter
Dec 13
New
Dec 20
First Quarter

Hourly Weather History & Observations

Time (EST) Temp. Windchill Dew Point Humidity Pressure Visibility Wind Dir Wind Speed Gust Speed Precip Events Conditions
12:15 AM 32.5 °F 21.5 °F 21.4 °F 64% 29.84 in 10.0 mi West 17.3 mph 23.0 mph N/A   Overcast
12:35 AM 32.4 °F 22.1 °F 21.2 °F 63% 29.84 in 10.0 mi West 15.0 mph 27.6 mph N/A   Overcast
12:55 AM 32.0 °F 22.5 °F 21.2 °F 64% 29.84 in 10.0 mi West 12.7 mph 23.0 mph N/A   Overcast
1:15 AM 32.0 °F 21.6 °F 21.2 °F 64% 29.84 in 10.0 mi West 15.0 mph 26.5 mph N/A   Overcast
1:35 AM 32.0 °F 20.5 °F 20.7 °F 63% 29.84 in 10.0 mi West 18.4 mph 21.9 mph N/A   Overcast
1:55 AM 32.0 °F 22.1 °F 20.7 °F 63% 29.84 in 10.0 mi West 13.8 mph 23.0 mph N/A   Overcast
2:15 AM 32.0 °F 22.1 °F 21.0 °F 64% 29.84 in 10.0 mi West 13.8 mph 25.3 mph N/A Snow Light Snow
2:35 AM 31.8 °F 22.8 °F 21.2 °F 65% 29.84 in 10.0 mi WSW 11.5 mph 19.6 mph N/A Snow Light Snow
2:55 AM 31.5 °F 21.4 °F 21.2 °F 66% 29.84 in 10.0 mi West 13.8 mph - N/A   Overcast
3:15 AM 31.5 °F 20.9 °F 21.4 °F 66% 29.84 in 10.0 mi West 15.0 mph - N/A Snow Light Snow
3:35 AM 31.5 °F 21.8 °F 21.6 °F 67% 29.84 in 10.0 mi West 12.7 mph 19.6 mph N/A   Overcast
3:55 AM 31.5 °F 21.4 °F 21.9 °F 68% 29.84 in 10.0 mi WSW 13.8 mph 20.7 mph N/A   Overcast
4:15 AM 31.1 °F 21.4 °F 22.6 °F 71% 29.84 in 10.0 mi West 12.7 mph - N/A Snow Light Snow
4:35 AM 30.9 °F 20.7 °F 23.0 °F 72% 29.84 in 7.0 mi West 13.8 mph 19.6 mph N/A Snow Light Snow
5:53 AM 30.2 °F 20.8 °F 21.2 °F 69% 29.85 in 10.0 mi West 11.5 mph 19.6 mph N/A Snow Light Snow
7:53 AM 32.0 °F 22.5 °F 21.2 °F 64% 29.87 in 10.0 mi West 12.7 mph - N/A   Overcast
8:53 AM 32.0 °F 24.2 °F 21.2 °F 64% 29.87 in 7.0 mi WNW 9.2 mph 19.6 mph N/A Snow Light Snow
9:53 AM 33.8 °F 22.2 °F 21.2 °F 60% 29.88 in 10.0 mi WNW 20.7 mph 27.6 mph N/A Snow Light Snow
10:53 AM 33.8 °F 21.9 °F 19.4 °F 56% 29.87 in 10.0 mi WNW 21.9 mph 34.5 mph N/A   Overcast
11:53 AM 33.8 °F 22.2 °F 21.2 °F 60% 29.86 in 10.0 mi WNW 20.7 mph 35.7 mph N/A   Overcast
12:53 PM 35.6 °F 24.5 °F 19.4 °F 52% 29.85 in 10.0 mi WNW 20.7 mph 34.5 mph N/A   Overcast
2:53 PM 33.8 °F 23.2 °F 19.4 °F 56% 29.85 in 10.0 mi West 17.3 mph 34.5 mph N/A Snow Light Snow
3:53 PM 33.8 °F 23.9 °F 17.6 °F 52% 29.88 in 10.0 mi West 15.0 mph 34.5 mph N/A   Overcast
4:53 PM 32.0 °F 20.8 °F 19.4 °F 60% 29.90 in 10.0 mi WNW 17.3 mph 34.5 mph N/A   Overcast
5:53 PM 32.0 °F 21.2 °F 19.4 °F 60% 29.91 in 10.0 mi WNW 16.1 mph 28.8 mph N/A   Mostly Cloudy
6:53 PM 30.2 °F 19.3 °F 19.4 °F 64% 29.92 in 10.0 mi WNW 15.0 mph 29.9 mph N/A   Mostly Cloudy
7:53 PM 30.2 °F 19.3 °F 19.4 °F 64% 29.93 in 10.0 mi WNW 15.0 mph 26.5 mph N/A   Scattered Clouds
8:15 PM 30.7 °F 19.2 °F 19.9 °F 64% 29.93 in 10.0 mi WNW 17.3 mph 27.6 mph N/A   Overcast
8:35 PM 30.7 °F 19.6 °F 19.9 °F 64% 29.94 in 10.0 mi WNW 16.1 mph 29.9 mph N/A   Overcast
8:55 PM 30.7 °F 18.8 °F 20.1 °F 65% 29.94 in 10.0 mi WNW 18.4 mph 26.5 mph N/A Snow Light Snow
9:15 PM 31.1 °F 19.3 °F 19.2 °F 61% 29.95 in 10.0 mi WNW 18.4 mph 29.9 mph N/A Snow Light Snow
9:35 PM 31.1 °F 20.1 °F 18.7 °F 60% 29.94 in 10.0 mi West 16.1 mph 23.0 mph N/A   Overcast
9:55 PM 31.1 °F 19.3 °F 19.2 °F 61% 29.94 in 10.0 mi West 18.4 mph 24.2 mph N/A Snow Light Snow
10:15 PM 30.9 °F 20.2 °F 19.4 °F 62% 29.94 in 10.0 mi WNW 15.0 mph 23.0 mph N/A Snow Light Snow
10:35 PM 31.1 °F 21.4 °F 19.6 °F 62% 29.94 in 10.0 mi WNW 12.7 mph 23.0 mph N/A   Overcast
10:55 PM 31.1 °F 21.9 °F 19.6 °F 62% 29.94 in 10.0 mi WNW 11.5 mph 19.6 mph N/A   Overcast
11:15 PM 30.9 °F 19.4 °F 19.8 °F 63% 29.94 in 10.0 mi West 17.3 mph 23.0 mph N/A   Overcast
11:35 PM 31.1 °F 22.4 °F 19.4 °F 62% 29.94 in 10.0 mi West 10.4 mph 20.7 mph N/A   Overcast
11:55 PM 30.9 °F 20.7 °F 19.2 °F 62% 29.93 in 10.0 mi West 13.8 mph 20.7 mph N/A   Overcast